DELTA 1 R/B, 50

Orbit data source: Space-Track

DELTA 1 R/B, 50 is space debris in LEO originally from a launch on Fri, 12 Aug 1960 UTC launched from the Air Force Eastern Test Range (AFETR). Debris objects in space refer to the collection of defunct objects orbiting the Earth. Examples of debris include non-operational satellites, rocket bodies, and fragments generated from explosions, collisions, or faulty payload assembly.

Loading next visibility...
DELTA 1 R/B details
Identifier
50, 1960-009B
Orbit
LEO
Last TLE update1 day ago
Origin
Flag of USGSFC (US)
ManufacturerABL
MissionSpacecraft
Bus & MotorALTAIR, Unknown motor
Mass24 kg wet, 24 kg dry
Launch date (UTC)
1960-08-12 (65 years ago)
Launch vehicleUnknown
Launch site
Air Force Eastern Test Range (AFETR)
Object type
Payload
Rocket body
Debris
Shape & HBRCyl, 1.5 m
Radar Cross Section0.687 m², Medium (>0.1 m² and < 1m²)

Expand to show TLE details & history

TLE from 1 day ago
0 DELTA 1 R/B
1 00050U 60009B   25043.51695306 -.00000014  00000-0  67267-3 0  9996
2 00050  47.2286 241.6285 0113411 355.6124   4.3665 12.20153085877914
Epoch: 2025-02-12T12:24Z
Definitive object data (Epoch: 2025-02-12T12:24:24.744Z)
Latitude0.00004°
Longitude-87.28086°
Altitude1,501.974 km
Speed7.155 km/s
True Right ascension16h 06m 30s
True Declination0° 00' 00"
Sunlit
Object was in daylight at TLE epoch
Visualization TLE readout
Latitude28.33452°
Longitude59.29682°
Altitude1,662.278 km
Speed7.015 km/s
Apparent Right ascension03h 59m 19s
Apparent Declination-1° 41' 36"
Sunlit
Object is in daylight
Visualization observer readout
Local Sidereal Time19:16:29
Azimuth62.427° ENE
Elevation-31.265°
Doppler factor1
Orbital elements
Apogee altitude1,683.34 km
Perigee altitude1,502.539 km
Semi-major axis7,971.076 km
Eccentricity0.0113411
Inclination47.2286°
RAAN241.6285°
Arg. of periapsis355.6124°
True anomaly4.46686°
Mean anomaly4.3665°
Eccentric anomaly4.41654°
Mean motion3.04977 °/min
BSTAR0.00067267
Orbital period118.04 mins
Loading maneuver chart data...
Loading historical data...
Loading historical data...
Loading historical data...
Loading historical data...
Loading historical data...
Loading historical data...
Loading historical data...

DELTA 1 R/B Visibility forecast

Observer location: undefined°, undefined

Span
Click to sort rows by Start time (UTC) header in descending order
Start Az.
Max El. time (UTC)
Max El. Az.
Max El.
End time (UTC)
End Az.
18 mins2025-02-13 18:10:05.631Z270.359° WNW2025-02-13 18:19:05.631Z351.913° N40.845°2025-02-13 18:28:05.631Z67.863° E
17 mins2025-02-13 20:17:05.631Z296.087° NW2025-02-13 20:25:05.631Z17.064° NNE41.619°2025-02-13 20:34:05.631Z93.673° ESE
18 mins2025-02-13 22:22:05.631Z295.647° NW2025-02-13 22:30:05.631Z218.643° SW43.443°2025-02-13 22:40:05.631Z134.751° SE
12 mins2025-02-14 00:28:05.631Z273.366° WNW2025-02-14 00:34:05.631Z230.972° WSW21.27°2025-02-14 00:40:05.631Z190.767° SSW
11 mins2025-02-14 13:40:05.631Z165.343° S2025-02-14 13:45:05.631Z126.918° SE20.831°2025-02-14 13:51:05.631Z83.542° E
16 mins2025-02-14 15:41:05.631Z225.541° WSW2025-02-14 15:48:05.631Z167.638° S43.518°2025-02-14 15:57:05.631Z63.414° ENE
|